Theta_e
305 308 308 309 309 309 309 309 306 304 303 301 302 301 302 303 301 301 303 304 306 307 303 302 302 301 301 299 299 298 299 301 301 301 301 297 298 298 296 297 298 298 299 301 302
302 302 304 306 308 309 309 306 300 300 301 302 303 303 303 305 301 299 302 304 305 303 302 302 301 300 299 300 299 298 296 299 298 298 298 299 299 299 300 299 299 299 300 301 302
301 302 302 301 301 306 302 301 300 300 301 300 300 301 302 306 299 299 301 303 302 302 303 302 302 300 300 300 300 299 299 299 300 299 299 300 300 299 300 300 298 299 300 299 300
303 303 303 303 302 301 299 299 299 299 299 300 300 300 301 302 301 299 299 301 301 302 303 302 300 300 300 301 302 299 302 302 299 302 301 301 301 300 299 299 299 297 298 299 299
309 308 307 307 305 303 300 298 298 298 298 299 299 301 302 297 299 298 299 301 301 302 302 301 301 301 301 302 302 302 301 301 301 301 301 301 301 300 299 297 296 296 298 298 298
312 314 314 312 309 304 302 298 298 297 297 298 298 301 300 298 300 298 300 301 301 301 301 301 302 302 301 302 302 301 301 301 301 302 302 302 300 299 299 298 298 298 298 298 297
313 314 314 314 313 308 304 301 298 297 297 297 300 300 297 297 298 298 300 300 301 301 301 301 302 301 302 303 301 301 302 299 302 302 302 300 299 299 297 298 299 298 298 297 296
314 314 315 315 315 311 306 304 299 298 296 298 299 299 295 297 298 299 300 300 302 302 301 301 302 302 302 301 300 297 298 298 300 301 301 300 300 299 297 298 297 297 296 297 296
316 316 316 315 315 312 310 305 301 299 297 297 298 297 295 297 297 298 300 300 301 302 303 302 302 299 298 302 298 295 294 300 299 300 301 302 300 299 298 298 297 296 295 295 295
317 317 317 316 315 314 311 304 303 302 298 298 297 298 297 296 297 298 300 301 301 301 302 301 298 296 294 295 295 294 297 299 299 300 301 300 300 299 297 296 295 294 294 294 295
317 317 316 316 315 312 311 305 304 305 298 295 294 296 296 296 298 300 300 301 300 299 300 300 298 296 299 298 298 299 300 300 298 298 298 298 297 297 297 296 295 293 293 293 293
318 316 315 315 314 310 308 297 297 298 300 297 295 295 296 296 298 298 301 299 295 295 298 296 297 299 299 300 301 299 294 294 297 298 298 297 297 297 297 296 296 293 292 294 292
317 315 315 314 314 308 300 297 297 297 299 300 294 295 295 297 298 298 300 299 295 293 292 295 301 300 300 300 299 299 295 294 299 298 296 295 296 295 297 297 295 294 293 292 291
316 315 316 313 311 304 299 297 297 297 300 303 295 296 297 297 300 298 299 300 299 294 297 296 301 300 301 300 298 295 298 299 299 293 292 295 295 296 297 297 296 294 292 291 290
315 313 313 311 309 303 300 298 297 299 304 298 295 294 296 298 298 299 298 299 301 298 292 296 301 300 299 301 297 298 298 299 295 286 293 290 291 296 296 298 297 295 292 290 289
310 311 310 309 307 302 300 298 299 302 302 296 294 295 296 297 298 298 300 298 297 299 298 294 297 298 298 298 298 296 293 290 290 284 289 287 290 296 295 295 296 295 292 290 289
310 310 310 307 305 303 301 301 302 304 298 298 295 295 295 296 298 297 298 299 298 293 290 294 297 297 296 298 296 292 284 286 288 286 291 279 291 295 293 294 294 294 292 289 289
310 310 308 305 303 302 303 300 296 293 297 300 295 297 298 295 297 297 297 298 297 294 287 289 293 291 297 297 291 295 287 288 284 287 288 282 292 293 293 293 292 291 290 289 289
310 308 306 302 303 303 300 301 298 297 304 300 301 297 294 297 294 293 297 295 298 293 291 290 292 295 296 298 294 290 291 289 283 278 285 286 288 291 292 288 291 290 288 288 288
309 307 302 301 302 304 304 306 300 303 296 298 306 301 296 292 297 291 295 296 299 296 290 292 291 290 294 296 293 289 291 290 285 287 284 284 279 290 287 288 288 290 289 287 286
308 304 300 300 302 300 307 304 304 303 296 298 302 299 300 295 293 291 295 297 297 296 293 287 286 289 294 290 290 294 288 288 285 289 287 286 289 284 286 284 284 285 286 285 284
305 305 298 300 303 300 307 305 300 299 295 297 297 300 301 295 294 290 296 296 295 292 295 294 291 288 291 293 292 290 288 292 290 285 286 290 293 285 283 278 274 283 284 284 281
301 299 296 299 304 305 302 302 296 299 297 297 298 297 295 294 296 297 297 297 294 295 295 296 287 286 294 292 293 292 293 293 289 291 289 290 293 280 274 280 279 279 284 283 281
300 304 297 296 298 302 304 305 305 296 297 296 297 295 295 293 295 296 297 296 296 296 298 296 293 290 296 293 285 292 295 296 296 289 294 294 295 295 295 293 288 279 280 280 277
301 303 298 301 301 301 303 304 304 303 296 295 294 296 295 295 295 293 296 296 295 297 296 293 288 292 291 290 286 293 293 294 295 297 293 297 288 293 294 292 291 278 277 276 278
301 301 298 296 299 300 303 304 305 303 298 298 294 298 296 297 300 298 296 295 295 295 295 293 288 285 283 292 292 291 292 294 293 294 294 294 294 294 294 290 281 282 275 278 275
301 301 301 303 300 301 303 303 302 299 299 299 296 297 296 297 296 296 294 294 295 296 296 294 290 287 289 285 284 291 292 292 288 283 291 292 293 290 289 282 277 281 275 279 277
Wind_Speed
12 12 13 13 13 13 13 12 11 10 9 8 7 5 4 4 14 18 13 13 13 18 14 6 9 8 7 5 6 2 4 2 3 5 2 4 4 2 4 3 5 3 3 2 2
13 14 15 15 15 14 13 12 11 10 9 7 7 7 5 4 6 16 14 16 15 15 10 9 6 7 4 3 4 4 3 4 1 2 2 2 0 2 3 3 3 3 2 3 3
14 16 17 18 18 16 14 11 10 10 8 7 7 7 6 2 3 5 19 17 13 13 5 4 2 2 5 4 4 1 3 3 2 3 2 2 2 1 1 3 7 5 5 4 6
15 17 18 19 19 18 15 10 9 9 8 6 7 7 4 2 1 8 18 17 11 13 3 5 5 4 4 4 2 4 2 2 3 2 0 2 1 3 6 7 3 7 6 5 6
16 18 19 21 22 20 18 11 9 8 7 6 8 8 1 5 1 10 15 14 8 11 11 3 6 3 5 3 1 3 2 3 2 5 5 2 4 4 8 10 8 9 6 6 5
15 18 20 22 24 23 20 12 8 8 7 6 8 6 2 4 2 10 14 9 13 11 14 9 3 1 5 3 3 1 2 5 3 2 2 2 3 1 6 4 5 5 7 6 7
15 16 20 22 23 23 22 14 8 8 7 6 5 3 6 3 3 10 11 8 9 9 4 6 3 2 2 3 1 1 3 4 2 2 2 1 6 7 5 1 5 9 5 5 7
14 16 18 21 24 22 24 16 6 6 6 4 4 2 2 2 4 9 12 5 6 7 5 5 5 5 4 3 5 5 4 4 2 3 3 6 9 7 6 4 9 9 7 6 6
14 16 18 21 24 21 25 14 5 4 4 3 2 3 1 3 4 9 9 6 5 4 5 4 4 4 5 4 4 7 1 1 8 2 2 2 9 12 2 6 11 9 7 6 5
12 15 17 19 22 23 23 9 4 2 2 1 3 4 3 4 6 8 8 7 3 3 3 7 5 4 4 5 2 3 2 2 5 3 4 7 18 18 8 6 10 10 7 8 6
12 14 16 18 21 21 20 3 7 3 10 2 3 2 3 8 3 5 8 5 4 7 4 4 5 2 4 3 4 4 2 4 5 4 5 6 14 23 17 6 8 8 8 7 4
11 14 15 15 19 15 12 7 3 1 5 1 1 1 1 4 3 5 8 4 6 2 4 6 1 2 3 3 2 3 2 5 6 2 4 6 21 22 11 6 5 8 7 5 5
10 12 15 14 15 9 12 6 2 1 0 3 1 2 2 4 1 5 4 2 4 4 3 4 1 3 2 1 2 3 4 3 4 6 3 8 8 5 2 2 3 3 4 2 5
12 10 10 11 3 7 4 5 2 0 4 2 2 2 2 1 2 2 3 3 4 2 3 2 3 2 2 2 4 2 3 1 3 5 2 6 5 6 4 5 5 7 6 5 7
4 9 6 6 4 2 3 5 2 1 4 2 2 2 3 2 2 2 3 2 3 2 5 4 2 2 1 3 4 3 2 1 3 4 4 4 3 8 3 6 9 9 8 7 7
7 5 3 3 4 2 5 4 0 6 5 3 3 2 4 4 4 4 2 4 3 3 1 4 3 2 2 2 1 2 4 5 4 4 3 3 4 7 4 5 4 4 7 7 8
3 1 1 2 2 4 5 2 5 4 2 5 2 3 2 3 4 5 3 2 2 4 4 4 2 1 1 2 3 6 6 4 6 4 5 2 1 11 8 6 6 8 8 8 8
2 2 1 3 2 4 3 5 3 3 5 2 1 1 1 4 2 4 2 3 1 4 3 3 6 1 1 2 4 2 5 5 5 3 5 3 6 6 5 7 8 7 7 8 10
5 2 1 3 1 3 4 2 7 6 2 3 2 5 5 1 2 4 2 3 4 5 6 3 5 1 3 2 3 2 2 2 6 1 3 3 8 11 3 7 7 9 8 10 9
5 3 1 2 1 3 3 5 3 2 1 1 3 4 3 3 3 4 1 3 2 1 2 3 3 1 2 3 5 5 3 4 3 2 5 5 6 7 7 10 6 9 12 11 8
2 1 3 1 2 4 3 5 3 3 2 3 2 2 4 1 3 2 4 2 2 3 4 4 3 5 2 4 7 2 2 4 3 4 4 3 6 8 10 8 9 10 10 10 9
1 1 1 3 2 1 2 3 3 2 1 3 2 5 5 6 4 3 5 6 5 6 4 3 4 3 9 2 3 4 6 5 4 6 3 2 10 6 8 6 4 12 10 10 7
1 0 1 1 3 4 1 2 2 3 4 3 3 4 3 6 1 5 3 1 6 6 6 6 1 3 7 4 3 3 5 4 2 2 7 4 9 3 4 7 7 10 12 10 7
2 1 1 1 1 3 3 4 4 1 3 3 2 3 3 1 3 3 3 2 5 4 5 5 4 7 6 6 3 3 5 9 7 3 6 15 26 28 25 17 14 9 10 11 8
1 3 2 3 4 5 4 1 5 4 3 3 3 7 6 4 1 5 4 2 3 5 4 4 5 2 5 6 6 14 18 12 15 17 11 25 12 24 22 17 17 7 7 9 8
2 2 1 2 0 7 11 9 12 8 7 4 5 4 8 6 10 8 6 5 5 2 5 3 3 2 4 7 6 11 20 16 20 22 18 24 26 34 26 16 9 10 5 9 8
5 2 1 4 5 5 6 11 9 7 8 7 10 5 7 18 6 1 2 1 4 8 7 5 4 2 5 4 7 9 11 9 5 4 11 15 25 12 13 8 7 9 6 9 8
Wind_Direction
24 11 13 10 6 3 359 353 359 4 6 13 6 9 348 358 24 56 39 341 328 331 341 352 35 55 61 60 43 83 67 192 181 147 169 350 21 353 329 313 335 333 88 177 126
25 21 16 13 6 2 360 0 11 13 14 24 35 32 23 13 26 47 0 345 341 345 355 17 10 15 51 38 24 74 108 191 107 115 146 289 5 314 14 339 287 305 147 75 116
26 21 19 17 13 5 360 3 13 12 17 31 38 24 5 348 76 340 351 350 351 350 335 355 342 37 65 38 9 109 139 169 179 149 178 213 245 213 233 276 221 210 286 288 164
27 22 17 12 10 8 2 2 7 8 12 16 13 355 360 73 74 348 350 352 356 357 142 38 40 60 71 72 339 110 66 91 166 103 220 244 280 259 199 234 193 229 243 262 180
27 22 17 13 9 6 4 358 357 1 4 8 9 357 43 46 39 354 352 360 13 37 52 42 54 84 102 114 138 70 1 339 320 291 243 256 248 254 255 260 265 268 263 242 186
22 20 15 11 8 4 1 355 347 353 350 346 349 355 54 72 324 352 352 13 35 52 47 42 101 163 103 74 71 27 326 294 293 297 293 287 270 61 259 258 266 251 261 232 194
11 14 11 7 3 358 358 350 343 355 357 359 7 28 55 150 340 356 356 21 34 49 69 52 39 92 123 91 71 49 39 357 8 338 349 343 289 222 224 27 295 287 283 194 203
1 2 1 1 1 356 352 346 328 358 0 7 3 30 94 348 349 356 11 39 41 56 73 44 48 100 61 139 29 42 49 14 317 348 31 75 277 269 263 305 285 284 282 220 214
350 352 354 356 357 355 350 346 335 336 345 356 23 44 17 334 358 353 5 358 350 39 52 54 70 81 34 69 21 18 221 329 321 14 263 176 272 268 307 293 287 278 260 225 217
338 342 345 350 353 351 349 342 346 357 1 39 58 41 16 324 318 335 354 356 4 338 19 41 47 68 40 64 228 265 0 278 251 292 357 281 270 280 281 263 257 266 247 215 214
327 333 340 343 346 351 354 350 13 357 39 107 273 243 336 327 320 2 354 347 4 49 45 2 68 164 167 145 132 136 214 248 258 284 306 253 278 283 297 268 264 247 221 214 261
315 328 338 346 344 354 13 64 64 302 316 334 284 274 337 348 340 352 8 55 55 71 337 21 136 188 135 136 130 122 132 271 284 309 341 298 292 289 280 260 221 198 204 206 305
304 317 322 345 343 360 52 66 32 336 250 311 343 333 310 9 8 318 21 85 88 60 31 136 57 128 105 57 86 219 179 239 249 330 283 321 295 325 339 269 229 205 189 230 270
290 303 318 346 3 359 52 17 357 82 58 296 8 14 353 14 2 346 27 109 44 160 159 200 324 147 73 258 129 301 174 317 302 40 296 30 284 300 301 290 229 219 229 274 314
303 295 322 356 345 39 342 352 334 284 6 302 341 320 325 24 339 23 14 349 125 154 85 260 168 172 123 234 156 210 18 353 88 93 37 339 60 273 331 281 251 233 237 270 282
313 350 3 4 3 32 350 341 70 40 262 328 301 343 17 14 4 329 32 52 110 113 98 230 295 178 198 44 307 17 56 40 55 88 23 258 116 276 235 217 287 268 230 270 291
281 283 303 24 30 336 343 27 30 137 352 296 331 34 126 317 349 24 355 330 180 45 344 329 261 355 130 75 25 61 49 335 352 7 227 312 322 249 261 251 231 250 253 272 275
263 190 95 88 4 344 15 52 111 242 233 134 272 26 63 13 23 335 300 291 162 95 101 117 328 104 24 147 173 66 142 148 241 277 273 352 238 250 235 277 253 248 259 280 283
203 182 308 8 354 2 65 82 210 203 168 179 60 64 320 337 182 18 232 220 204 171 158 122 285 318 38 79 93 255 56 164 98 89 23 245 288 288 296 288 264 259 265 267 273
189 160 26 350 90 95 86 256 236 242 142 107 177 152 198 274 357 52 301 220 162 124 131 182 348 295 280 97 30 135 155 52 11 324 291 282 278 239 291 274 282 265 252 262 274
159 23 342 135 102 54 205 229 274 256 321 202 239 190 208 184 173 242 248 279 123 122 83 126 100 286 55 195 179 116 12 53 123 158 197 293 255 215 237 238 259 275 270 257 277
113 241 356 154 65 180 223 219 319 257 161 238 254 215 206 157 207 243 238 214 171 150 157 188 134 245 228 155 157 164 185 156 138 253 231 194 269 221 230 251 211 269 270 274 262
186 191 22 39 204 223 217 271 229 218 224 186 235 230 167 175 240 208 236 291 161 165 168 176 308 356 337 17 13 205 196 172 138 113 204 156 264 307 293 302 246 259 281 280 286
140 267 321 71 329 179 196 230 236 266 257 195 224 136 148 234 219 252 251 197 196 211 172 159 173 187 210 216 141 225 204 201 180 171 234 227 271 285 287 294 295 266 263 274 288
211 243 196 191 227 199 178 224 239 257 232 198 313 216 171 202 220 225 218 238 186 210 142 130 208 267 259 252 206 257 256 226 209 226 219 267 251 267 280 288 293 281 285 292 285
230 186 356 183 226 215 215 209 220 206 169 236 208 207 187 202 199 195 172 195 200 121 153 175 255 103 285 279 289 277 266 246 237 244 252 258 275 266 278 294 286 277 286 281 278
258 263 217 191 185 193 219 227 227 163 225 204 202 143 202 235 224 228 186 116 158 159 177 161 151 77 267 342 320 297 257 220 190 222 216 229 241 279 286 269 260 274 236 258 265